Regional Weather Roundup
Issued by NWS

Home | Current Version | Previous Version | Graphics & Text | Print | Product List | Glossary On
Versions: 1 2 3 4 5 6 7 8 9 10 11 12 13 14 15 16 17 18 19 20 21 22 23 24 25 26 27 28 29 30 31 32 33 34 35 36 37 38 39 40 41 42 43 44 45 46 47 48 49 50
000
ASUS45 KPSR 291300
RWRAZ

PRELIMINARY ARIZONA REGIONAL HOURLY WEATHER ROUNDUP
NATIONAL WEATHER SERVICE PHOENIX AZ
600 AM MST TUE JUL 29 2014

NOTE: FAIR INDICATES FEW OR NO CLOUDS BELOW 12,000 FEET WITH NO
SIGNIFICANT WEATHER AND/OR OBSTRUCTIONS TO VISIBILITY.

AZZ001>003-036-291400-
NORTHWEST ARIZONA

CITY           SKY/WX    TMP DP  RH WIND       PRES   REMARKS
KINGMAN        CLEAR     69  58  67 CALM      30.12S
$$

AZZ004>008-015-016-018-291400-
NORTH CENTRAL ARIZONA

CITY           SKY/WX    TMP DP  RH WIND       PRES   REMARKS
GRAND CANYON   CLEAR     50  48  93 CALM      30.37S
WILLIAMS       CLEAR     54  50  87 S9        30.44S
PRESCOTT       CLEAR     61  55  81 SW6       30.27R
FLAGSTAFF      CLEAR     51  48  89 CALM      30.41R
PAYSON         CLEAR     64  54  68 CALM      30.29R
PAGE           CLEAR     72  52  49 CALM      30.21R
$$

AZZ009>014-017-291400-
NORTHEAST ARIZONA

CITY           SKY/WX    TMP DP  RH WIND       PRES   REMARKS
WINSLOW        NOT AVBL
SAINT JOHNS    CLEAR     63  57  81 S5        30.31R
WINDOW ROCK    CLEAR     59  56  89 CALM      30.38R FOG
$$

AZZ023-291400-
GREATER PHOENIX AREA

CITY           SKY/WX    TMP DP  RH WIND       PRES   REMARKS
PHOENIX        PTCLDY    92  58  31 NW5       29.94S
BUCKEYE          N/A     82  57  42 N3        29.95S
GLENDALE       PTCLDY    88  61  40 CALM      29.97
DEER VALLEY    CLEAR     85  62  46 CALM      29.97R
SCOTTSDALE     CLEAR     85  63  47 CALM      29.99R
MESA-FALCON    PTCLDY    86  59  39 NE8       29.97R
CHANDLER       PTCLDY    84  64  51 CALM      29.97
$$

AZZ027-028-291400-
SOUTHWEST MARICOPA COUNTY AND PINAL COUNTY

CITY           SKY/WX    TMP DP  RH WIND       PRES   REMARKS
CASA GRANDE    CLEAR     81  57  44 CALM      29.99S
$$

AZZ503-504-507>509-291400-
SOUTHEAST ARIZONA

CITY           SKY/WX    TMP DP  RH WIND       PRES   REMARKS
TUCSON         CLEAR     77  65  66 SE8       30.10R
DAVIS-MONTHAN  CLEAR     76  64  65 SE2       30.08S
RYAN FIELD       N/A     75  64  69 CALM      30.09
NOGALES        CLEAR     66  60  81 CALM      30.17S
SIERRA VISTA   PTCLDY    72  57  60 W9        30.24S
SAFFORD        CLEAR     75  64  68 CALM      30.11R
$$

AZZ020-021-025-026-031-291400-
SOUTHWEST ARIZONA

CITY           SKY/WX    TMP DP  RH WIND       PRES   REMARKS
YUMA           PTCLDY    86  62  44 S5        29.90R
$$

CAZ031-033-041-043-047-048-061-291400-
SOUTHERN CALIFORNIA

CITY           SKY/WX    TMP DP  RH WIND       PRES   REMARKS
DOWNTOWN L.A.  CLEAR     68  60  75 CALM      30.01S
L.A. AIRPORT   PTCLDY    67  63  87 VRB3      30.02S
SAN DIEGO      PTCLDY    72  65  78 NW3       30.02S
BURBANK        CLEAR     71  51  49 NW3       30.02F
ONTARIO        MOCLDY    73  44  35 CALM      30.03F
RIVERSIDE      CLEAR     70  39  32 CALM      30.04S
PALM SPRINGS   CLEAR     83  57  41 CALM      29.94R
EL CENTRO NAS  PTCLDY    86  51  29 W6        29.88R
IMPERIAL       CLEAR     83  56  39 W5        29.87S
BLYTHE           N/A    N/A N/A N/A MISG      29.90R
$$

NVZ020-UTZ003-291400-
SOUTHERN NEVADA-UTAH

CITY           SKY/WX    TMP DP  RH WIND       PRES   REMARKS
LAS VEGAS      NOT AVBL
SALT LAKE CITY CLOUDY    68  64  87 S5        30.18R
$$

NMZ009-TXZ055-291400-
NEW MEXICO-WEST TEXAS

CITY           SKY/WX    TMP DP  RH WIND       PRES   REMARKS
ALBUQUERQUE    PTCLDY    67  61  81 CALM      30.32R
EL PASO        TSTM      69  63  81 NW12      30.19R
$$


........................KEY........................
SKY/WX - SKY CONDITION/WEATHER
TMP    - TEMPERATURE IN FAHRENHEIT
DP     - DEW POINT IN FAHRENHEIT
RH     - RELATIVE HUMIDITY IN PERCENT
WIND   - DIRECTION AND SPEED IN MILES PER HOUR (MPH)
VRB    - VARIABLE WIND DIRECTION
PRES   - MEAN SEA LEVEL PRESSURE IN INCHES OF MERCURY
         F - FALLING PRESSURE   R - RISING PRESSURE
         S - STEADY PRESSURE
VSB    - VISIBILITY IN MILES
HX     - HEAT INDEX IN FAHRENHEIT
WCI    - WIND CHILL INDEX IN FAHRENHEIT
TC     - TEMPERATURE IN CELSIUS WHICH IS ALSO KNOWN AS
         TEMPERATURE IN CENTIGRADE
AFB    - AIR FORCE BASE
         LUKE AFB IS LUKE AIR FORCE BASE
         DAVIS-MONTHAN IS DAVIS-MONTHAN AIR FORCE BASE
NAS    - NAVAL AIR STATION
         EL CENTRO NAS IS EL CENTRO NAVAL AIR STATION
N/A    - NOT AVAILABLE



USA.gov is the U.S. government's official web portal to all federal, state and local government web resources and services.